Cork, Ireland

1:28 AM IST on April 24, 2017 (GMT +0100)
Cork

Weather History for EICK - February, 2013

Change the Weather History Date:

Tuesday, February 5, 2013

  Actual Average Record
Temperature  
Mean Temperature 38 °F -  
Max Temperature 43 °F 46 °F 51 °F (2000)
Min Temperature 32 °F 37 °F 30 °F (2009)
Degree Days  
Heating Degree Days 28    
Moisture  
Dew Point 35 °F    
Average Humidity 89    
Maximum Humidity 100    
Minimum Humidity 65    
Precipitation  
Precipitation 0.31 in 0.15 in - ()
Sea Level Pressure  
Sea Level Pressure 29.75 in    
Wind  
Wind Speed 20 mph ()    
Max Wind Speed 29 mph    
Max Gust Speed 62 mph    
Visibility 6.1 miles    
Events Rain , Snow    
Averages and records for this station are not official NWS values.
T = Trace of Precipitation, MM = Missing Value Source: Averaged Metar Reports

Daily Weather History Graph

Daily Weather History Graph

Search for Another Location

Airport or City:

Trip Planner

Search our weather history database for the weather conditions in past years. The results will help you decide how hot, cold, wet, or windy it might be!

Date:

Astronomy

Feb. 05, 2013 Rise Set
Actual Time 8:06 AM GMT 5:30 PM GMT
Civil Twilight 7:30 AM GMT 6:05 PM GMT
Nautical Twilight 6:50 AM GMT 6:46 PM GMT
Astronomical Twilight 6:11 AM GMT 7:25 PM GMT
Moon 3:47 AM GMT (2/5) 12:20 PM GMT (2/5)
Length of Visible Light 10h 35m
Length of Day
9h 23m
Waning Crescent, 29% of the Moon is Illuminated
Feb 5
Waning Crescent
Feb 10
New
Feb 17
First Quarter
Feb 25
Full
Mar 4
Last Quarter

Hourly Weather History & Observations

Time (GMT) Temp. Windchill Dew Point Humidity Pressure Visibility Wind Dir Wind Speed Gust Speed Precip Events Conditions
12:00 AM 38 °F - 30 °F 65% 29.89 in 12 mi West 24.6 mph - - Rain Light Rain Showers
12:00 AM 37.4 °F 25.9 °F 30.2 °F 75% 29.86 in 6.2 mi West 25.3 mph 40.3 mph N/A Rain Light Rain Showers
12:30 AM 37.4 °F 25.2 °F 28.4 °F 70% 29.86 in 3.7 mi West 28.8 mph 62.1 mph N/A Rain , Snow Light Rain Showers
1:00 AM 33.8 °F 20.5 °F 32.0 °F 93% 29.83 in 6.2 mi West 27.6 mph 39.1 mph N/A   Mostly Cloudy
1:30 AM 35.6 °F 24.0 °F 32.0 °F 87% 29.83 in 6.2 mi West 23.0 mph 41.4 mph N/A Rain , Snow Light Rain Showers
2:00 AM 35.6 °F 24.8 °F 32.0 °F 87% 29.83 in 3.1 mi West 19.6 mph 32.2 mph N/A Snow Light Snow Showers
2:30 AM 33.8 °F 23.9 °F 32.0 °F 93% 29.80 in 6.2 mi West 15.0 mph - N/A   Mostly Cloudy
3:00 AM 32.0 °F 20.8 °F 32.0 °F 100% 29.80 in 2.5 mi West 17.3 mph 31.1 mph N/A Snow Light Snow Showers
3:30 AM 33.8 °F 23.5 °F 32.0 °F 93% 29.80 in 2.2 mi West 16.1 mph - N/A Snow Light Snow Showers
4:00 AM 32.0 °F 20.1 °F 32.0 °F 100% 29.77 in 1.0 mi WNW 19.6 mph - N/A Snow Light Snow Showers
4:30 AM 32.0 °F 21.6 °F 32.0 °F 100% 29.74 in 6.2 mi West 15.0 mph - N/A   Scattered Clouds
5:00 AM 32.0 °F 18.9 °F 32.0 °F 100% 29.74 in 2.5 mi West 24.2 mph - N/A Snow Light Snow Showers
5:30 AM 32.0 °F 20.5 °F 32.0 °F 100% 29.74 in 6.2 mi West 18.4 mph - N/A   Mostly Cloudy
6:00 AM 33 °F - 31 °F 92% 29.77 in 12 mi West 17.9 mph - - Snow Light Snow Showers
6:00 AM 32.0 °F 20.8 °F 32.0 °F 100% 29.74 in 6.2 mi West 17.3 mph - N/A   Scattered Clouds
6:30 AM 32.0 °F 19.2 °F 32.0 °F 100% 29.74 in 1.6 mi WNW 23.0 mph - N/A Snow Light Snow Showers
7:00 AM 32.0 °F 22.1 °F 32.0 °F 100% 29.74 in 1.9 mi SSW 13.8 mph - N/A Snow Light Snow Showers
7:30 AM 32.0 °F 22.1 °F 32.0 °F 100% 29.71 in 6.2 mi West 13.8 mph - N/A   Scattered Clouds
8:00 AM 32.0 °F 21.6 °F 32.0 °F 100% 29.71 in 6.2 mi West 15.0 mph - N/A Rain , Snow Light Rain
8:30 AM 32.0 °F 20.5 °F 32.0 °F 100% 29.74 in 3.1 mi West 18.4 mph - N/A Snow Light Snow Showers
9:00 AM 33.8 °F 23.9 °F 32.0 °F 93% 29.71 in 6.2 mi West 15.0 mph - N/A Snow Light Snow Showers
9:30 AM 35.6 °F 25.9 °F 32.0 °F 87% 29.71 in 6.2 mi West 16.1 mph - N/A   Scattered Clouds
10:00 AM 35.6 °F 24.5 °F 33.8 °F 93% 29.71 in 6.2 mi West 20.7 mph - N/A Rain , Snow Light Rain Showers
10:30 AM 33.8 °F 22.8 °F 33.8 °F 100% 29.71 in 6.2 mi West 18.4 mph - N/A   Scattered Clouds
11:00 AM 35.6 °F 25.9 °F 33.8 °F 93% 29.71 in 6.2 mi West 16.1 mph - N/A   Partly Cloudy
11:30 AM 37.4 °F 28.9 °F 33.8 °F 87% 29.71 in 6.2 mi West 13.8 mph - N/A   Partly Cloudy
12:00 PM 39 °F - 35 °F 78% 29.75 in 19 mi West 24.6 mph - -   Partly Cloudy
12:00 PM 39.2 °F 28.3 °F 33.8 °F 81% 29.71 in 6.2 mi West 25.3 mph - N/A   Scattered Clouds
12:30 PM 39.2 °F 29.0 °F 35.6 °F 87% 29.68 in 6.2 mi West 21.9 mph 33.4 mph N/A   Partly Cloudy
1:00 PM 41.0 °F 30.7 °F 35.6 °F 81% 29.68 in 6.2 mi West 25.3 mph 39.1 mph N/A   Mostly Cloudy
1:30 PM 39.2 °F 27.8 °F 37.4 °F 93% 29.68 in 6.2 mi West 27.6 mph 44.9 mph N/A Rain Light Rain Showers
2:00 PM 37.4 °F 25.9 °F 37.4 °F 100% 29.68 in 6.2 mi West 25.3 mph 39.1 mph N/A Rain Light Rain Showers
2:30 PM 41.0 °F 30.7 °F 39.2 °F 93% 29.65 in 6.2 mi West 25.3 mph 41.4 mph N/A Rain Light Rain
3:00 PM 41.0 °F 30.5 °F 39.2 °F 93% 29.68 in 6.2 mi WNW 26.5 mph 38.0 mph N/A Rain Light Rain Showers
3:30 PM 41.0 °F 30.7 °F 39.2 °F 93% 29.68 in 6.2 mi WNW 25.3 mph - N/A   Mostly Cloudy
4:00 PM 41.0 °F 31.6 °F 41.0 °F 100% 29.68 in 6.2 mi WNW 20.7 mph 38.0 mph N/A Rain Light Rain Showers
4:30 PM 42.8 °F 32.9 °F 41.0 °F 93% 29.68 in 6.2 mi WNW 26.5 mph 38.0 mph N/A Rain Light Rain Showers
5:00 PM 41.0 °F 31.1 °F 37.4 °F 87% 29.71 in 6.2 mi NW 23.0 mph 35.7 mph N/A Rain Light Rain Showers
5:30 PM 41.0 °F 31.9 °F 39.2 °F 93% 29.71 in 6.2 mi WNW 19.6 mph - N/A   Scattered Clouds
6:00 PM 43 °F - 40 °F 85% 29.73 in 12 mi WNW 22.4 mph - - Rain Light Rain Showers
6:00 PM 42.8 °F 33.8 °F 39.2 °F 87% 29.71 in 6.2 mi WNW 21.9 mph - N/A   Scattered Clouds
6:30 PM 42.8 °F 33.1 °F 39.2 °F 87% 29.74 in 6.2 mi WNW 25.3 mph 38.0 mph N/A Rain Light Rain Showers
7:00 PM 42.8 °F 34.0 °F 39.2 °F 87% 29.74 in 6.2 mi WNW 20.7 mph - N/A   Mostly Cloudy
7:30 PM 42.8 °F 34.0 °F 39.2 °F 87% 29.77 in 6.2 mi WNW 20.7 mph - N/A   Mostly Cloudy
8:00 PM 42.8 °F 34.0 °F 37.4 °F 81% 29.77 in 6.2 mi WNW 20.7 mph - N/A   Partly Cloudy
8:30 PM 42.8 °F 33.5 °F 37.4 °F 81% 29.77 in 6.2 mi NW 23.0 mph - N/A   Partly Cloudy
9:00 PM 42.8 °F 33.5 °F 37.4 °F 81% 29.80 in 6.2 mi NW 23.0 mph - N/A   Scattered Clouds
9:30 PM 42.8 °F 33.3 °F 37.4 °F 81% 29.80 in 6.2 mi NW 24.2 mph 38.0 mph N/A   Scattered Clouds
10:00 PM 42.8 °F 32.7 °F 35.6 °F 76% 29.83 in 6.2 mi NW 27.6 mph 42.6 mph N/A   Partly Cloudy
10:30 PM 41.0 °F 31.1 °F 35.6 °F 81% 29.83 in 6.2 mi NW 23.0 mph - N/A   Partly Cloudy
11:00 PM 41.0 °F 31.4 °F 33.8 °F 76% 29.86 in 6.2 mi NW 21.9 mph - N/A   Partly Cloudy
11:30 PM 41.0 °F 31.1 °F 35.6 °F 81% 29.89 in 6.2 mi NW 23.0 mph 35.7 mph N/A   Partly Cloudy